DW7857 Weather Reports


time (UTC)temp
F
wind
direction
speed
knots
gust
knots
rain 1hr
in
rain 24hr
in
rain mn
in
humidity
%
barometer
mb
20190123032019 37 295 0.9 4.3 0.00 0.06 0.00 85 994.7
20190123031019 37 338 4.3 9.6 0.00 0.06 0.00 85 994.7
20190123030019 37 311 2.6 5.2 0.00 0.06 0.00 85 994.3
20190123025018 36 0 0.0 0.0 0.00 0.06 0.00 85 994.4
20190123024019 35 0 0.0 0.0 0.00 0.06 0.00 84 994.7
20190123023019 35 343 0.0 1.7 0.00 0.06 0.00 84 994.4
20190123022018 34 0 0.0 0.0 0.00 0.06 0.00 84 994.6
20190123021018 35 0 0.0 0.0 0.00 0.06 0.00 84 994.7
20190123020019 35 284 0.0 2.6 0.00 0.06 0.00 84 994.6
20190123015018 33 302 0.9 3.5 0.00 0.06 0.00 84 994.4
20190123014015 32 0 0.0 0.0 0.00 0.06 0.00 83 994.2
20190123013015 31 0 0.0 0.0 0.00 0.06 0.00 83 994.0
20190123012015 31 0 0.0 0.0 0.00 0.06 0.00 83 994.7
20190123011015 31 0 0.0 0.0 0.00 0.06 0.00 83 994.5
20190123010015 31 0 0.0 0.0 0.00 0.06 0.00 83 994.7
20190123005015 31 0 0.0 0.0 0.00 0.06 0.00 83 994.5
20190123004016 32 0 0.0 0.0 0.00 0.06 0.00 83 994.3
20190123003031 32 0 0.0 0.0 0.00 0.06 0.00 83 994.4
20190123000018 32 0 0.0 0.0 0.00 0.06 0.00 83 994.3
20190122235016 32 0 0.0 0.0 0.00 0.06 0.06 82 994.3
20190122234016 32 0 0.0 0.0 0.00 0.06 0.06 82 994.1
20190122233016 32 0 0.0 0.0 0.00 0.09 0.06 82 994.2
20190122232016 32 0 0.0 0.0 0.00 0.09 0.06 82 994.5
20190122231016 32 0 0.0 0.0 0.00 0.13 0.06 82 994.4
20190122230016 32 0 0.0 0.0 0.00 0.15 0.06 82 994.3
20190122225015 32 0 0.0 0.0 0.00 0.18 0.06 82 994.4
20190122224016 32 0 0.0 0.0 0.00 0.19 0.06 82 994.3
20190122223015 33 0 0.0 0.0 0.00 0.21 0.06 82 994.3
20190122222012 33 0 0.0 0.0 0.00 0.22 0.06 82 994.4
20190122221012 33 0 0.0 0.0 0.00 0.24 0.06 82 994.7
20190122220012 33 0 0.0 0.0 0.00 0.24 0.06 81 994.8
20190122215012 34 0 0.0 0.0 0.00 0.25 0.06 81 994.8
20190122214012 34 0 0.0 0.0 0.00 0.25 0.06 82 994.8
20190122213019 34 0 0.0 0.0 0.00 0.25 0.06 81 994.8
20190122212018 34 0 0.0 0.0 0.00 0.25 0.06 81 994.9
20190122211018 35 0 0.0 0.0 0.00 0.25 0.06 81 994.9
20190122210018 35 0 0.0 0.0 0.00 0.25 0.06 81 995.0
20190122205018 35 0 0.0 0.0 0.00 0.25 0.06 81 994.9
20190122204018 35 0 0.0 0.0 0.00 0.25 0.06 81 994.8
20190122203018 35 0 0.0 0.0 0.00 0.25 0.06 81 995.1
20190122202021 36 0 0.0 0.0 0.00 0.25 0.06 81 995.1
20190122201018 36 0 0.0 0.0 0.00 0.25 0.06 81 995.0
20190122200018 36 0 0.0 0.0 0.00 0.25 0.06 80 995.0
20190122195018 36 0 0.0 0.0 0.00 0.25 0.06 80 995.1
20190122194018 37 0 0.0 0.0 0.00 0.25 0.06 80 995.1
20190122193018 37 0 0.0 0.0 0.00 0.25 0.06 80 994.9
20190122192018 37 0 0.0 0.0 0.00 0.25 0.06 80 994.8
20190122191018 37 0 0.0 0.0 0.00 0.25 0.06 79 994.9
20190122190018 37 0 0.0 0.0 0.00 0.25 0.06 79 995.0
20190122185018 38 0 0.0 0.0 0.00 0.25 0.06 78 994.9
20190122184018 38 0 0.0 0.0 0.00 0.25 0.06 78 995.0
20190122183019 38 0 0.0 0.0 0.00 0.25 0.06 77 995.1
20190122182018 38 0 0.0 0.0 0.00 0.25 0.06 76 995.1
20190122181019 39 0 0.0 0.0 0.00 0.25 0.06 76 995.1
20190122180019 40 308 0.9 1.7 0.00 0.25 0.06 76 995.3
20190122175018 39 301 2.6 3.5 0.00 0.25 0.06 76 995.2
20190122174019 39 310 3.5 5.2 0.00 0.25 0.06 76 995.3
20190122173019 39 302 3.5 3.5 0.00 0.25 0.06 76 995.4
20190122172019 40 312 4.3 5.2 0.00 0.25 0.06 76 995.3
20190122171019 40 295 4.3 6.1 0.00 0.25 0.06 76 995.5
20190122170019 40 323 3.5 4.3 0.00 0.25 0.06 76 995.5
20190122165019 40 301 5.2 6.1 0.00 0.25 0.06 75 995.5
20190122164019 40 308 7.0 9.6 0.00 0.25 0.06 75 995.3
20190122163019 41 336 5.2 7.0 0.00 0.25 0.06 75 995.4
20190122162019 41 298 6.1 10.4 0.00 0.25 0.06 75 995.1
20190122161019 42 314 7.8 9.6 0.00 0.25 0.06 77 995.3
20190122160019 42 314 5.2 5.2 0.00 0.25 0.06 76 995.1
20190122155019 42 305 4.3 6.1 0.00 0.25 0.06 76 995.1
20190122154019 42 288 4.3 6.1 0.00 0.25 0.06 77 995.0
20190122153019 42 323 4.3 6.1 0.00 0.25 0.06 78 995.3
20190122152019 42 288 6.1 7.8 0.00 0.25 0.06 79 995.7
20190122151019 42 317 5.2 9.6 0.01 0.25 0.06 80 995.5
20190122150019 42 304 5.2 9.6 0.02 0.25 0.06 80 995.5
20190122145019 42 314 3.5 7.0 0.02 0.25 0.06 80 995.4
20190122144019 42 286 0.0 2.6 0.04 0.25 0.06 81 995.5
20190122143019 41 265 2.6 3.5 0.04 0.25 0.06 81 996.0
20190122142019 41 251 2.6 3.5 0.04 0.25 0.06 80 995.9
20190122141019 40 292 3.5 4.3 0.04 0.24 0.05 80 996.2
20190122140019 40 310 6.1 6.1 0.02 0.22 0.04 80 996.3
20190122135019 40 317 5.2 7.8 0.02 0.22 0.04 80 996.7
20190122134019 41 240 3.5 6.1 0.01 0.21 0.02 80 996.6
20190122133020 41 255 4.3 6.1 0.01 0.21 0.02 80 996.7
20190122132019 41 224 5.2 7.8 0.01 0.21 0.02 80 996.8
20190122131019 41 206 3.5 5.2 0.00 0.20 0.01 80 997.2
20190122130019 41 234 3.5 6.1 0.00 0.20 0.01 79 997.3
20190122125019 41 255 3.5 5.2 0.00 0.20 0.01 79 997.6
20190122124020 41 261 6.1 9.6 0.00 0.20 0.01 78 997.8
20190122123020 41 245 5.2 7.0 0.00 0.20 0.01 78 998.0
20190122122019 41 232 2.6 7.0 0.00 0.20 0.01 77 998.2
20190122121019 41 270 0.0 2.6 0.00 0.20 0.01 78 998.3
20190122120019 41 258 0.9 5.2 0.00 0.21 0.01 78 999.0
20190122115019 40 237 0.9 4.3 0.00 0.21 0.01 79 999.0
20190122114019 40 181 0.0 3.5 0.00 0.21 0.01 80 999.2
20190122113019 40 222 0.9 5.2 0.00 0.21 0.01 80 999.1
20190122112019 40 204 0.0 3.5 0.00 0.21 0.01 80 999.5
20190122111019 39 0 0.0 0.0 0.00 0.21 0.01 80 999.5
20190122110019 39 0 0.0 0.0 0.00 0.21 0.01 80 999.7
20190122105019 39 0 0.0 0.0 0.00 0.21 0.01 80 999.6
20190122104019 39 0 0.0 0.0 0.01 0.21 0.01 80 999.8
20190122103019 39 0 0.0 0.0 0.01 0.21 0.01 80 999.8
20190122102019 38 171 0.9 3.5 0.01 0.21 0.01 80 999.8
20190122101019 38 188 0.0 1.7 0.01 0.21 0.01 80 999.9
20190122100019 38 0 0.0 0.0 0.01 0.21 0.01 80 1000.0
20190122095019 38 0 0.0 0.0 0.01 0.21 0.01 80 1000.2
20190122094019 38 0 0.0 0.0 0.00 0.20 0.00 80 1000.3
20190122093020 38 0 0.0 0.0 0.00 0.20 0.00 81 1000.3
20190122092019 38 0 0.0 0.0 0.00 0.20 0.00 81 1000.5
20190122091019 38 0 0.0 0.0 0.00 0.20 0.00 81 1000.6
20190122090019 37 0 0.0 0.0 0.00 0.20 0.00 81 1000.7
20190122085019 36 0 0.0 0.0 0.00 0.20 0.00 80 1000.8
20190122084019 36 0 0.0 0.0 0.00 0.20 0.00 80 1000.8
20190122083019 36 270 0.0 2.6 0.00 0.20 0.00 80 1000.9
20190122082019 36 0 0.0 0.0 0.00 0.20 0.00 80 1000.9
20190122081019 36 0 0.0 0.0 0.00 0.20 0.00 80 1000.8
20190122080019 36 314 0.9 3.5 0.00 0.20 0.00 80 1001.0
20190122075019 36 0 0.0 0.0 0.00 0.20 0.00 80 1001.1
20190122074019 37 343 0.0 4.3 0.00 0.20 0.00 80 1001.1
20190122073019 37 277 1.7 4.3 0.00 0.20 0.00 80 1001.3
20190122072019 37 284 1.7 5.2 0.00 0.20 0.00 80 1001.2
20190122071019 37 260 5.2 8.7 0.00 0.20 0.00 80 1001.3
20190122070019 37 230 2.6 7.0 0.00 0.20 0.00 80 1001.7
20190122065019 37 321 1.7 4.3 0.00 0.20 0.00 80 1001.5
20190122064019 37 234 2.6 7.0 0.00 0.20 0.00 80 1001.5
20190122063019 36 314 0.9 3.5 0.00 0.20 0.00 80 1001.3
20190122062019 36 0 0.0 0.0 0.00 0.20 0.00 80 1001.4
20190122061019 36 207 1.7 4.3 0.00 0.20 0.00 80 1001.4
20190122060019 36 0 0.0 0.0 0.00 0.20 0.00 80 1001.4
20190122055019 36 0 0.0 0.0 0.00 0.20 0.00 80 1001.4
20190122054019 37 236 0.9 3.5 0.00 0.20 0.00 80 1001.7
20190122053020 37 203 1.7 5.2 0.00 0.20 0.00 80 1001.8
20190122052019 37 267 1.7 4.3 0.00 0.20 0.00 80 1001.7
20190122051019 37 285 2.6 5.2 0.00 0.20 0.00 80 1002.0
20190122050019 37 284 0.9 4.3 0.00 0.20 0.00 80 1001.7
20190122045019 38 0 0.0 0.0 0.00 0.20 0.00 79 1001.8
20190122044019 37 301 0.9 3.5 0.00 0.20 0.00 79 1001.7
20190122043019 37 0 0.0 0.0 0.00 0.20 0.00 78 1001.7
20190122042020 38 0 0.0 0.0 0.00 0.20 0.00 77 1001.7
20190122041019 38 290 0.0 3.5 0.00 0.20 0.00 77 1001.6
20190122040019 38 334 3.5 6.1 0.00 0.20 0.00 76 1001.7
20190122035019 39 296 6.1 9.6 0.00 0.20 0.00 77 1001.8
20190122034019 39 289 2.6 8.7 0.00 0.20 0.00 76 1002.0
20190122033019 39 312 7.0 11.3 0.00 0.20 0.00 77 1002.3